Lapse_Rate
6.1 6.4 6.8 7.3 8.0 9.3 8.4 9.1 9.3 8.7 7.4 7.4 7.6 7.5 6.3 6.0 5.5 5.4 5.2 5.3 5.5 5.5 5.0 5.6 5.7 5.7 6.1 6.3 6.1 6.0 6.1 5.9 5.7 5.7 5.7 5.1 5.1 4.9 5.2 5.2 5.8 6.1 6.0 5.9
6.7 6.3 7.1 7.6 8.7 9.3 8.4 9.3 9.3 8.4 7.8 7.9 8.5 8.0 7.4 6.8 6.3 5.6 5.4 5.6 5.6 5.5 5.3 5.0 5.9 5.9 6.2 6.3 6.3 6.2 6.0 5.9 5.8 5.6 5.5 4.7 4.9 5.2 5.3 6.2 6.1 6.2 6.3 6.2
6.9 7.2 7.4 7.9 8.2 9.3 8.8 9.2 9.3 9.0 8.3 8.1 8.4 8.2 8.3 7.4 6.6 6.0 5.7 5.6 5.6 5.5 5.5 5.1 5.7 6.2 6.1 6.3 6.4 6.4 6.3 6.0 6.0 5.9 5.9 5.6 5.0 4.9 5.4 5.5 6.3 6.4 6.4 6.6
7.2 7.6 7.7 7.8 7.9 9.3 9.3 9.3 9.2 8.3 9.0 9.4 8.8 9.3 8.4 7.9 7.1 6.5 6.4 5.9 5.5 5.8 5.7 5.3 5.4 6.1 5.8 6.3 6.3 6.3 6.4 6.3 6.1 6.0 5.9 5.9 5.8 4.8 4.8 5.1 5.6 6.5 6.6 6.6
7.0 7.5 7.8 7.7 7.9 8.8 9.3 9.1 9.3 9.3 9.4 9.4 8.9 9.4 9.1 8.4 7.4 7.0 6.6 6.0 5.6 6.2 6.0 5.8 5.8 6.4 6.1 5.7 6.3 6.3 6.3 6.5 6.3 6.1 6.1 5.9 5.8 4.8 4.7 4.9 5.6 6.1 6.4 6.4
7.4 8.2 8.0 8.0 8.4 8.2 8.5 9.3 9.2 8.5 9.4 9.6 9.4 9.5 9.5 9.2 8.3 7.5 6.9 6.3 6.0 5.9 6.0 6.0 5.6 5.6 6.0 5.7 5.7 6.3 6.3 6.3 6.4 6.4 6.2 5.9 5.7 5.1 4.8 4.7 5.4 5.7 5.8 5.8
7.5 7.6 8.2 8.5 9.4 8.9 8.6 9.4 9.5 9.5 9.8 9.8 9.5 9.5 9.6 8.9 8.5 8.7 7.3 6.7 6.5 6.2 6.2 5.9 5.7 5.7 6.9 6.7 6.4 6.3 6.3 6.3 6.4 6.4 6.4 6.2 6.0 5.9 5.8 5.5 4.9 4.3 4.5 4.7
8.1 8.8 8.2 8.2 8.2 8.7 8.9 9.4 9.5 9.3 9.7 9.8 9.5 9.5 9.4 9.3 9.2 8.9 8.1 7.4 6.9 6.7 6.5 6.2 6.1 5.9 7.2 7.2 7.1 6.9 6.6 6.4 6.3 6.2 6.4 6.4 6.2 6.0 6.0 5.8 4.5 4.3 4.4 4.5
9.5 9.5 9.4 9.4 8.3 8.2 9.2 9.0 9.1 9.4 9.5 9.7 9.6 9.6 9.4 9.1 8.8 9.1 8.3 8.0 7.4 7.2 7.2 6.9 6.4 6.1 5.9 7.3 7.6 7.6 7.2 6.6 6.5 6.4 6.2 6.2 6.3 6.1 6.1 6.2 5.5 4.8 4.2 4.2
9.5 9.6 9.6 9.6 9.4 8.3 8.9 9.0 9.5 9.4 9.6 9.5 9.7 9.7 9.4 9.4 9.0 8.8 9.0 8.3 8.0 7.6 7.3 7.1 6.7 6.2 6.0 6.2 6.4 7.5 7.5 7.2 6.7 6.6 6.4 6.3 6.3 6.2 6.1 6.1 6.1 5.8 5.3 4.9
9.2 9.5 9.5 9.6 9.5 9.0 9.1 9.4 9.5 9.5 9.5 9.9 9.8 9.7 9.7 9.4 9.3 9.1 9.2 8.8 8.5 8.0 7.6 7.2 6.9 6.5 6.0 5.9 5.8 6.1 7.2 7.1 6.6 6.5 6.5 6.3 6.2 6.2 5.9 5.8 6.0 5.9 5.9 5.5
8.6 9.4 9.5 9.7 9.6 9.6 9.6 9.6 9.5 9.6 9.6 9.6 9.5 9.7 9.7 9.5 9.2 8.8 8.8 8.3 8.3 8.4 7.9 7.5 7.1 6.8 6.2 6.0 5.8 5.7 6.6 7.0 6.9 6.6 6.4 6.1 6.1 6.3 6.3 6.2 6.2 6.0 5.9 5.8
8.5 9.4 9.6 9.7 9.6 9.6 9.5 9.5 9.5 9.5 9.5 9.6 9.8 9.6 9.4 9.0 8.8 8.5 8.3 7.6 8.6 8.5 8.2 7.8 7.3 7.0 6.7 6.3 6.2 6.2 6.8 7.1 7.1 6.9 6.6 6.2 6.2 6.3 6.5 6.5 6.3 6.1 6.1 6.0
8.3 8.7 9.6 9.7 9.7 9.6 9.6 9.5 9.6 9.6 9.6 9.6 9.6 9.6 9.7 9.1 8.7 8.5 7.6 8.4 8.5 8.2 8.3 8.0 7.6 7.3 6.8 6.6 6.7 6.7 7.0 6.8 7.0 6.9 6.6 6.4 6.3 6.4 6.4 6.3 6.2 6.3 6.4 6.3
8.4 8.8 9.4 9.6 9.6 9.6 9.7 9.6 9.3 9.6 9.5 9.6 9.6 9.6 9.6 9.3 9.2 8.1 7.4 8.4 8.3 7.7 7.8 8.0 7.6 7.1 6.7 7.1 7.2 7.2 7.0 6.8 6.7 6.7 6.5 6.6 6.5 6.3 6.2 6.2 6.1 6.1 6.2 6.3
8.5 8.9 8.9 9.5 9.5 9.6 9.6 9.7 9.6 9.3 9.5 9.6 9.6 9.6 9.6 9.4 8.5 6.8 7.8 7.6 8.5 8.4 8.0 7.4 6.9 6.5 6.4 6.8 7.5 7.4 7.3 7.2 7.0 7.1 6.7 6.4 6.3 6.2 6.3 6.3 6.4 6.2 6.0 6.0
7.8 8.1 9.1 9.4 9.4 9.5 9.7 9.6 9.7 9.6 9.5 9.6 9.6 9.6 9.6 9.1 8.2 7.9 7.9 8.3 8.2 8.0 7.8 7.6 7.7 7.7 7.9 7.8 7.6 7.6 7.3 7.3 7.2 7.1 7.1 6.9 6.7 6.5 6.4 6.4 6.1 6.2 6.3 6.2
7.8 8.0 8.6 8.9 9.4 9.8 9.6 9.6 9.6 9.6 9.6 9.6 9.6 9.2 8.9 8.5 8.2 8.2 7.7 8.0 8.0 8.1 8.0 7.6 7.1 7.4 7.2 7.4 7.6 7.6 7.4 7.3 7.2 7.2 7.1 7.1 7.0 7.1 6.9 6.9 6.8 6.6 6.4 6.3
7.9 8.0 8.4 9.1 9.2 8.8 9.6 9.4 9.6 9.6 9.6 9.1 8.4 8.6 8.6 8.1 7.7 7.0 7.1 7.5 7.6 7.8 7.6 7.2 6.8 6.4 7.0 7.2 7.6 7.5 7.5 7.4 7.2 7.1 7.2 7.1 7.0 6.8 6.9 6.9 6.2 6.5 6.6 6.4
8.0 7.8 7.9 9.0 9.3 8.6 7.7 8.3 8.9 8.8 8.9 8.7 8.5 8.2 8.0 7.8 7.7 7.0 7.5 7.6 7.8 7.5 7.7 6.8 6.6 6.7 7.3 7.4 7.5 7.6 7.7 7.7 7.5 7.4 7.2 7.0 7.4 7.3 7.0 6.9 7.2 6.9 6.1 6.4
8.0 7.5 8.1 8.4 8.7 8.5 7.4 6.6 7.8 8.5 8.5 7.8 8.0 8.2 8.5 7.7 7.6 6.6 7.0 7.2 7.4 7.2 7.3 6.6 6.9 6.7 7.2 7.2 7.7 7.6 7.6 7.7 7.6 7.3 7.1 6.8 7.2 5.8 6.9 7.0 6.7 6.8 5.9 6.1
8.6 8.3 8.4 8.7 8.9 8.8 7.7 7.1 7.3 8.0 7.9 7.5 7.3 7.7 7.8 7.9 7.6 6.9 6.4 6.6 6.8 6.9 7.1 7.2 7.1 7.6 7.5 7.6 7.4 7.6 7.4 7.5 7.6 7.5 7.2 6.9 7.0 7.3 7.3 7.2 6.3 6.9 5.3 5.7
7.4 7.6 8.1 8.6 8.2 7.7 7.7 7.7 7.5 7.8 7.6 7.8 8.0 8.3 8.2 8.0 7.5 7.2 6.1 5.9 5.9 5.7 5.6 6.3 6.6 6.3 7.3 7.5 7.6 7.4 7.4 7.6 7.5 7.5 7.5 7.5 7.7 7.6 7.5 7.2 6.6 6.1 6.0 6.0
7.9 7.4 7.7 7.6 8.1 7.8 7.6 7.8 7.6 7.9 7.9 7.6 8.0 8.0 7.9 8.0 7.5 6.9 6.4 5.9 5.9 5.8 5.4 5.7 6.0 6.3 6.4 6.5 6.8 7.1 7.3 7.6 7.5 7.4 7.2 7.2 7.2 7.2 6.9 7.0 6.7 5.9 5.8 6.1
7.5 7.9 7.5 7.6 7.8 7.6 7.9 7.9 8.0 8.0 8.1 8.0 7.8 8.1 7.7 7.8 7.1 6.8 6.7 6.6 6.3 6.2 6.0 5.7 5.8 6.0 6.1 6.4 6.6 6.9 7.0 7.2 7.3 7.2 7.2 7.1 6.7 6.7 6.8 7.1 6.7 6.5 6.7 6.3
7.4 7.5 7.1 7.3 7.5 8.0 8.1 8.2 7.8 7.5 7.7 7.4 7.2 7.5 7.0 6.7 6.6 6.6 6.7 6.5 6.4 6.1 6.0 5.8 5.8 5.9 6.0 6.1 6.3 6.4 6.5 6.5 6.7 6.8 6.7 6.6 6.5 6.3 6.5 6.7 6.9 6.8 7.0 7.0
Wind_Speed
18 16 19 21 21 21 9 14 10 7 6 9 12 8 14 15 16 17 16 19 18 18 16 17 16 16 16 16 15 14 12 11 9 9 8 7 4 5 4 10 12 8 11 10
21 23 23 21 20 17 6 15 9 7 11 10 9 11 14 18 15 18 17 21 20 19 19 18 17 16 17 17 16 14 13 13 10 8 6 3 4 5 9 8 11 10 10 11
26 24 24 22 22 19 20 19 12 7 7 13 12 13 14 17 17 24 25 20 20 21 21 20 19 18 18 18 17 15 14 14 11 9 6 4 4 6 5 8 7 7 10 10
26 27 24 24 22 21 21 18 16 5 9 11 12 7 9 16 18 20 23 20 20 21 21 21 21 20 18 19 17 16 15 14 12 10 9 8 8 7 8 8 10 9 13 11
28 28 28 25 26 22 19 16 20 16 13 16 19 7 9 17 17 20 20 25 23 24 23 24 23 21 20 18 18 16 15 14 12 11 8 10 11 8 7 7 10 6 7 8
29 24 26 27 23 23 21 21 13 15 15 15 18 13 11 17 17 19 21 21 23 23 24 23 22 22 19 18 17 15 15 14 13 13 11 11 10 7 8 6 7 8 9 8
26 32 25 27 23 20 26 20 14 13 13 14 19 14 11 7 5 13 21 22 23 24 24 23 24 23 22 22 20 18 16 15 16 15 14 12 10 9 7 7 8 8 8 8
22 22 32 23 23 25 26 24 17 20 14 16 18 9 7 5 3 13 16 22 23 22 23 26 26 24 24 22 22 21 19 17 16 16 14 12 11 9 8 8 8 7 6 6
21 27 21 25 24 24 25 25 25 24 18 13 15 18 10 8 9 9 11 20 24 24 22 24 26 25 23 23 23 23 20 19 18 19 14 13 11 12 12 11 10 8 5 5
22 21 28 30 22 25 28 21 21 18 23 21 17 12 13 19 12 11 14 14 18 22 22 22 23 25 24 24 23 23 22 20 20 20 15 13 14 13 11 9 10 10 7 7
15 19 21 24 25 26 21 23 18 21 20 17 16 13 9 5 14 11 8 11 16 19 22 21 21 23 24 24 23 23 22 21 19 17 16 15 15 15 13 11 10 10 8 8
18 18 15 20 19 25 23 24 25 15 24 17 17 12 9 19 14 7 6 6 7 18 21 21 20 21 22 22 22 21 19 19 17 15 14 16 16 15 16 13 12 13 11 9
13 16 16 21 21 16 21 26 25 23 19 23 16 16 11 10 10 8 9 4 4 11 17 20 20 19 20 20 18 19 16 19 18 16 15 16 17 17 17 17 15 13 13 11
8 16 16 17 18 18 25 24 28 25 19 19 20 19 14 15 16 9 10 7 3 3 12 15 16 15 15 16 15 16 18 18 16 17 17 15 15 17 17 15 15 14 13 14
10 16 20 26 26 23 21 25 27 25 26 24 21 19 19 14 13 15 11 9 7 5 3 8 13 12 13 15 13 13 14 14 16 16 16 16 15 14 14 14 14 14 14 14
16 12 17 21 21 26 22 19 26 29 28 25 25 21 16 8 18 15 10 12 15 13 12 13 16 4 8 10 12 12 13 13 13 15 16 14 13 13 13 10 12 14 14 15
14 14 15 15 17 21 24 22 18 20 26 23 21 21 13 18 16 12 10 11 10 9 9 8 10 10 10 10 10 11 13 13 13 12 12 12 12 12 13 13 13 13 14 14
14 12 10 16 17 25 16 20 21 18 16 21 23 6 14 14 14 13 10 10 9 8 6 7 8 8 9 8 9 6 11 11 12 12 12 11 13 14 13 13 12 12 11 12
16 12 12 15 17 13 8 4 10 13 13 7 11 10 10 12 13 12 9 9 8 6 4 4 5 9 5 5 5 6 8 8 11 10 9 12 9 12 6 7 7 8 10 11
16 13 10 16 19 10 16 13 9 5 5 5 3 6 4 4 7 5 7 7 8 6 4 4 8 0 6 6 2 4 8 8 9 9 6 5 5 8 5 4 3 4 12 13
12 10 16 16 14 3 10 17 11 12 3 9 7 6 4 3 7 13 9 7 6 6 5 4 5 2 6 1 6 8 6 6 4 3 5 5 3 5 4 2 4 5 12 14
12 11 11 18 19 15 16 4 9 6 11 9 9 4 10 10 12 11 8 7 6 6 6 6 5 3 5 3 3 7 6 4 5 5 5 4 1 1 1 3 3 2 9 12
6 5 5 4 2 6 8 7 7 11 7 9 9 10 11 10 9 8 7 6 6 5 4 5 5 7 6 5 4 5 2 4 3 6 7 6 5 3 3 1 2 2 9 7
9 9 3 4 8 6 8 6 8 10 6 12 11 11 11 12 8 8 7 6 5 5 5 7 8 9 9 7 7 7 4 4 2 4 5 8 5 6 4 4 3 2 3 1
3 6 4 3 4 6 7 7 7 10 7 10 11 13 12 12 10 8 7 6 6 4 5 5 7 6 7 7 8 9 8 7 4 4 5 5 6 5 7 3 2 5 3 2
3 2 2 3 9 6 5 3 6 7 9 5 10 11 10 9 9 7 8 6 5 4 3 3 3 4 4 5 5 6 7 7 8 5 5 6 3 5 5 6 7 4 9 10
Wind_Direction
207 222 224 230 236 245 318 290 206 148 96 204 203 242 158 171 202 172 196 186 185 180 176 170 173 168 166 162 168 166 174 147 179 163 195 161 171 188 72 88 133 156 145 160
225 224 224 232 238 252 258 267 236 142 150 239 206 211 188 167 194 178 203 184 188 186 174 172 177 172 172 167 170 171 175 163 190 181 172 222 199 191 154 168 137 183 166 152
225 218 229 233 239 236 208 233 227 245 142 226 267 246 216 171 185 174 197 194 192 190 178 177 181 180 176 172 174 173 180 170 196 175 168 188 318 149 161 124 149 160 158 172
230 237 214 232 231 234 235 223 264 185 239 263 192 268 193 174 184 194 196 189 192 193 188 177 182 187 188 178 179 173 182 175 197 183 157 192 202 170 186 184 143 158 171 176
232 226 234 219 231 230 250 245 223 240 259 253 220 246 186 171 189 191 202 179 199 191 189 183 185 185 190 185 180 180 185 185 190 200 206 167 209 192 173 190 137 166 165 197
243 233 234 231 223 229 238 250 236 252 240 249 246 237 193 190 191 186 191 204 196 192 188 189 185 180 191 188 185 182 177 190 198 192 218 201 212 223 182 204 156 197 175 181
233 239 223 235 225 220 229 226 232 222 228 239 236 226 231 107 160 186 182 196 197 196 188 189 186 185 190 190 187 185 176 191 195 194 201 208 210 230 181 174 205 207 199 183
224 222 227 211 231 222 217 229 229 219 221 228 228 227 245 236 312 170 185 186 192 199 190 187 191 190 189 191 187 189 179 185 198 200 202 206 216 203 218 185 221 223 218 176
241 230 220 230 220 238 223 223 240 252 242 255 214 197 170 146 198 169 199 178 188 195 199 191 189 191 189 193 190 190 180 188 195 202 200 199 207 232 205 205 207 231 255 165
258 268 225 215 213 228 241 216 224 240 247 248 239 200 228 181 203 193 184 185 189 192 198 194 194 186 192 196 195 196 190 188 196 200 197 200 200 215 238 222 192 232 187 249
262 258 270 208 200 219 219 234 221 237 234 246 244 233 183 133 172 164 181 198 195 193 195 198 196 189 190 194 196 196 195 189 197 197 192 200 201 204 217 218 214 219 218 190
253 259 245 227 210 216 235 215 233 232 228 240 257 251 207 177 141 137 215 23 300 195 195 194 192 193 188 196 194 194 197 194 193 194 195 193 200 202 205 215 211 211 214 212
339 249 251 250 197 203 228 241 232 234 238 230 230 241 100 87 81 111 59 36 250 239 192 188 189 189 185 192 194 195 192 197 190 196 197 197 202 204 213 207 218 208 208 206
288 264 254 244 230 211 216 236 237 231 236 240 226 232 167 164 154 136 87 40 82 255 180 183 185 182 178 185 194 191 188 201 191 196 197 200 204 207 210 217 208 219 210 205
281 262 257 259 268 258 214 216 237 236 236 237 232 231 237 196 112 90 87 69 84 126 126 352 173 175 178 184 197 192 194 199 196 188 199 203 206 207 213 209 217 213 215 213
306 295 271 263 255 258 269 243 212 227 238 239 246 246 215 128 89 81 67 86 54 29 25 25 16 159 181 189 195 197 207 197 201 190 199 203 199 204 213 217 208 217 217 219
282 275 276 251 245 255 246 239 237 223 227 237 235 244 253 97 85 64 66 67 62 40 13 31 26 19 4 348 208 202 199 202 206 211 199 202 199 207 214 215 225 220 221 223
252 267 284 274 260 232 235 223 242 244 230 227 232 87 64 90 91 79 61 80 70 57 25 23 39 18 355 340 338 269 198 200 201 203 206 208 208 208 209 215 224 230 229 229
238 250 264 263 255 256 187 172 227 232 192 38 63 83 102 120 110 65 68 81 87 64 48 40 68 44 303 27 323 21 13 187 197 186 193 209 209 208 200 235 241 260 252 239
192 250 251 262 262 201 315 67 3 327 194 91 38 109 133 184 245 112 109 95 99 97 63 34 70 124 47 38 350 65 69 77 50 31 114 103 62 115 95 183 106 345 275 256
205 205 226 235 261 149 37 356 327 214 83 105 131 153 167 230 48 119 120 119 113 114 125 139 120 164 98 53 55 72 71 64 70 67 76 34 15 264 246 252 323 93 278 267
221 191 209 240 245 244 3 315 317 348 342 59 63 55 93 104 109 124 133 124 118 100 104 107 106 89 58 34 145 75 73 102 88 86 103 115 85 48 241 23 300 63 319 282
282 10 323 348 15 58 25 26 356 313 276 81 80 80 99 109 114 119 127 119 102 99 103 131 104 96 85 63 39 86 356 45 74 108 115 117 111 65 38 113 220 219 229 279
320 29 281 234 66 66 56 5 355 347 30 96 91 104 109 100 87 86 94 94 80 69 71 88 83 76 74 67 70 76 35 339 121 91 104 142 109 140 158 193 220 209 43 264
297 310 1 148 105 119 69 26 346 351 79 76 100 106 109 101 99 96 86 72 64 50 52 48 21 45 61 58 56 55 47 20 40 72 94 144 135 120 139 107 86 98 81 55
229 120 13 355 112 82 89 15 358 15 69 84 101 88 86 104 108 139 119 128 111 92 65 26 32 21 13 354 19 27 18 9 12 52 26 9 24 116 114 123 155 103 131 156